Location: Azul
(36.7830°S, 59.8500°W)
Time: 02:34:07
(UTC-03:00)

UWE-3 - Pass Details

Date: 25 October 2021
Orbit: 584 x 681 km, 97.7° (Epoch: 04 December)

Event Time Altitude Azimuth Distance (km) Brightness Sun altitude
Exits shadow 04:22:18 25° 358° (N) 1,273 ? -19.0°
Maximum altitude 04:24:46 66° 281° (W) 690 ? -18.6°
Drops below altitude 10° 04:29:14 10° 198° (SSW) 2,058 ? -17.8°
Sets 04:31:31 0° 195° (SSW) 2,992 ? -17.4°
